Regional Weather Roundup
Issued by NWS

Home | Current Version | Previous Version | Text Only | Print | Product List | Glossary On
Versions: 1 2 3 4 5 6 7 8 9 10 11 12 13 14 15 16 17 18 19 20 21 22 23 24 25 26 27 28 29 30 31 32 33 34 35 36 37 38 39 40 41 42 43 44 45 46 47 48 49 50
769
ASUS43 KIND 241609
RWRIN

WEATHER ROUNDUP FOR INDIANA
NATIONAL WEATHER SERVICE INDIANAPOLIS IN
1200 PM EDT FRI MAR 24 2017

NOTE: "FAIR" INDICATES FEW OR NO CLOUDS BELOW 12,000 FEET WITH NO
SIGNIFICANT WEATHER AND/OR OBSTRUCTIONS TO VISIBILITY.

* - STATION DOES NOT REPORT WEATHER SUCH AS PRECIPITATION OR FOG.

+ - STATION NOT QUALITY CONTROLLED BY THE NATIONAL WEATHER SERVICE.
    USE DATA WITH CAUTION...ESPECIALLY DEWPOINT AND RELATIVE
    HUMIDITY OBSERVATIONS.

INZ001>003-010>013-019-020-241700-
NORTHWEST INDIANA

CITY           SKY/WX    TMP DP  RH WIND       PRES   REMARKS
GARY /AIRPORT/ PTSUNNY   68  48  49 S14G26    29.96S
KNOX *+        SUNNY     68  30  24 SW18G28   30.00S
LA PORTE +     CLOUDY    67  53  61 SW17G28   29.99S
MICHIGAN CITY+ MOSUNNY   68  50  52 S18G29    29.97S
MONTICELLO +   SUNNY     67  52  58 SW22G32   30.04S
RENSSELAER +   SUNNY     68  54  60 S24G31    30.02S
VALPARAISO     CLOUDY    69  52  54 SW21G32   29.99F

$$

LMZ046-743>745-241700-
SOUTHERN LAKE MICHIGAN

STATION/POSITION TIME  TEMP    WIND        PRES    WAVE
                       AIR SEA DIR/SP/G            HT
                 (UTC) (F)     (DEG/KT/KT) (MB)    (FT)
BURNS HARBOR     1540   65     200/ 23/ 31 1014.6F
MICHIGAN CITY    1540   65     200/ 23/ 27   N/A

$$

INZ004-005-014>016-021>024-241700-
NORTH CENTRAL INDIANA

CITY           SKY/WX    TMP DP  RH WIND       PRES   REMARKS
ELKHART        CLOUDY    66  52  59 SW12G23   29.98F
GOSHEN         CLOUDY    65  50  58 SW20G31   30.00S
LOGANSPORT +   SUNNY     66  54  63 SW23G31   30.06F
PERU/GRISSOM   SUNNY     68  55  64 SW23G32   30.05S
ROCHESTER +    SUNNY     68  52  56 SW21G29   30.04S
SOUTH BEND     CLOUDY    65  51  60 SW18G33   29.98S
WARSAW +       CLOUDY    66  52  59 SW13G18   30.02S

$$

INZ006>009-017-018-025>027-241700-
NORTHEAST INDIANA

CITY           SKY/WX    TMP DP  RH WIND       PRES   REMARKS
ANGOLA *+      SUNNY     64  57  77 SW17      30.00S
AUBURN +       SUNNY     64  50  59 SW16G28   30.03F
FORT WAYNE     CLOUDY    66  52  60 SW24G38   30.05F
HUNTINGTON +   CLOUDY    64  51  64 SW17G29   30.06R
KENDALLVILLE + SUNNY     64  51  64 SW22G30   30.01F

$$

INZ028-029-035-036-043>045-051>053-241700-
WEST CENTRAL INDIANA

CITY           SKY/WX    TMP DP  RH WIND       PRES   REMARKS
CRAWFORDSVL +  MOSUNNY   66  55  67 SW18G30   30.10S
GREENCASTLE +  MOSUNNY   66  54  63 S15G25    30.12S
LAFAYETTE      SUNNY     68  55  63 SW16G25   30.06S
TERRE HAUTE    MOSUNNY   68  55  63 S22G29    30.11F

$$

INZ030>032-037>040-046>048-054>057-064-065-241700-
CENTRAL INDIANA

CITY           SKY/WX    TMP DP  RH WIND       PRES   REMARKS
ANDERSON       SUNNY     64  52  63 S17G29    30.13F
CP ATTERBURY + MOSUNNY   70  52  52 S14       30.16F
COLUMBUS       SUNNY     64  54  68 S15G24    30.17F
FISHERS *+     SUNNY     66  57  72 SW16G23   30.12
FRANKFORT +    SUNNY     71  56  60 SW25G31   30.10S
GREENWOOD *+   PTSUNNY   67  55  65 SW9G18    30.15F
INDIANAPOLIS   MOSUNNY   70  54  56 SW24G30   30.12F
-EAGLE CREEK   PTSUNNY   68  54  60 SW16G28   30.12F
KOKOMO +       SUNNY     67  55  65 SW28G35   30.08F
MARION +       SUNNY     63  51  65 SW23G30   30.10S
MT COMFORT *+  SUNNY     64  52  63 SW16      30.13F
SHELBYVILLE    MOSUNNY   66  50  56 S17       30.15F
ZIONSVILLE +   SUNNY     66  55  66 SW22G28   30.12S

$$

INZ033-034-041-042-049-050-058-059-241700-
EAST CENTRAL INDIANA

CITY           SKY/WX    TMP DP  RH WIND       PRES   REMARKS
MUNCIE         MOSUNNY   65  51  60 SW20G28   30.11S
RICHMOND +     PTSUNNY   63  52  67 SW20      30.18F

$$

INZ060-061-067>069-081>083-085>088-241700-
SOUTHWEST INDIANA

CITY           SKY/WX    TMP DP  RH WIND       PRES   REMARKS
EVANSVILLE     MOSUNNY   71  56  58 S18       30.17F
HUNTINGBURG *+ PTSUNNY   69  56  62 S20G26    30.19S
WASHINGTON +   MOSUNNY   69  53  56 MISG      30.16S

$$

INZ062-063-066-070>080-084-089>092-241700-
SOUTH CENTRAL AND SOUTHEAST INDIANA

CITY           SKY/WX    TMP DP  RH WIND       PRES   REMARKS
BEDFORD +      SUNNY     70  52  52 SW14G21   30.17F
BLOOMINGTON    MOSUNNY   69  53  56 SW18G28   30.16S
MADISON *+     MOSUNNY   64  48  55 S15G23    30.24S
NORTH VERNON + CLOUDY    66  50  55 SW20G29   30.20S
SEYMOUR +      MOSUNNY   70  52  52 SW16G25   30.19S

$$





USA.gov is the U.S. government's official web portal to all federal, state and local government web resources and services.